map of DXR home
DXR - Airport
Location
City:  Danbury, Connecticut, United States
Name:Danbury Municipal Airport
ICAO:KDXR
IATA:DXR
FAA LID:DXR

Details
Type:Airport (Airfield)
Use:Public/Civil
Latitude:4122'18"N (41.371528)
Longitude:7328'56"W (-73.482193)
Datum:WGS 1984
Elevation:456 ft (139 m)
Variation:13.30W (WMM2015 magnetic declination)
0.04 annual change
Runways:2
Longest:4422 × 150 ft (1348 × 45.5 m), paved

Time
Time Zone:UTC-5 (DST-4)
Local Time:

Weather
METAR:KDXR 260353Z AUTO 23008KT 10SM CLR 23/16 A2984 RMK AO2 SLP101 T02280156

Related Locations
Nearby:
Farthest:YAUG: 11759 mi / 18925 km
Augusta [Augusta Airport], WA, AU

Find:

   beyond  
but within

Other Information
Maps:
NOTAMs:
Links:
Sources:

  
flag of United States
flag of Connecticut
  

Airport Diagram

Airport diagram for DXR

Airport diagram PDF

Sectional Chart

Flight Planning
at skyvector.com

Satellite Image

Google Maps Satellite view

 

Copyright © 2004-2018 Karl L. Swartz. All rights reserved.
The Great Circle Mapper name and logo are trademarks of the Great Circle Mapper.
All other trademarks mentioned herein belong to their respective owners.
Please see credits for attibutions and further copyright information.

  Follow gcmap on Facebook Follow gcmap on Twitter Follow gcmap on Google+ GCmap on LinkedIn

hCard Microformat

Geo Microformat